Regional Weather Roundup
Issued by NWS

Home | Current Version | Previous Version | Graphics & Text | Print | Product List | Glossary On
Versions: 1 2 3 4 5 6 7 8 9 10 11 12 13 14 15 16 17 18 19 20 21 22 23 24 25 26 27
000
ASUS45 KBOI 272110
RWRID

IDAHO REGIONAL WEATHER ROUNDUP
NATIONAL WEATHER SERVICE BOISE ID
300 PM MDT SAT AUG 27 2016

NOTE: "FAIR" INDICATES FEW OR NO CLOUDS BELOW 12000 FEET
WITH NO SIGNIFICANT WEATHER AND/OR OBSTRUCTIONS TO VISIBILITY

IDZ012-014-272200-
SOUTHWEST IDAHO


CITY           SKY/WX    TMP DP  RH WIND       PRES   REMARKS
BOISE          SUNNY     88  32  13 N5        29.92F
CALDWELL       SUNNY     88  40  18 N7        29.89F
MOUNTAIN HOME  SUNNY     89  32  13 NW12      29.90F
$$

IDZ016-017-272200-
SOUTHCENTRAL IDAHO


CITY           SKY/WX    TMP DP  RH WIND       PRES   REMARKS
BURLEY         SUNNY     82  33  17 W9G17     29.98F
JEROME         SUNNY     83  36  18 W9        30.00S
TWIN FALLS     SUNNY     85  33  15 NW10      29.99F
$$

IDZ019>023-272200-
SOUTHEAST IDAHO


CITY           SKY/WX    TMP DP  RH WIND       PRES   REMARKS
IDAHO FALLS    CLOUDY    80  32  17 SW17G29   30.02F
POCATELLO      SUNNY     84  27  12 W15G23    30.02F
REXBURG        SUNNY     78  32  18 SW16G23   30.03F
$$

IDZ006-010-011-018-031-032-272200-
CENTRAL IDAHO MOUNTAINS


CITY           SKY/WX    TMP DP  RH WIND       PRES   REMARKS
MCCALL         SUNNY     77  27  15 SW12      30.02S
HAILEY         SUNNY     79  34  19 S10       30.04F
STANLEY          N/A     74  23  15 SW6       30.09F
SALMON         CLOUDY    79  34  19 NW7       29.88F
CHALLIS        SUNNY     83  22  10 VRB7G17   29.94F
$$

IDZ002-004-006-007-026-272200-
NORTHERN IDAHO


CITY           SKY/WX    TMP DP  RH WIND       PRES   REMARKS
LEWISTON       MOSUNNY   92  40  16 CALM      29.73F
LOWELL           N/A     92  42  17 NW3       29.74F
COEUR D`ALENE  CLOUDY    84  43  23 NE13G23   29.72F
MULLAN PASS    MOSUNNY   67  39  35 SW8G24    29.96F
$$




USA.gov is the U.S. government's official web portal to all federal, state and local government web resources and services.